ATLAS 5 CENTAUR DEB, 44692

Orbit data source: Space-Track

ATLAS 5 CENTAUR DEB, 44692 is space debris in HEO originally from a launch on Wed, 17 Oct 2018 UTC launched from the Air Force Eastern Test Range (AFETR). Debris objects in space refer to the collection of defunct objects orbiting the Earth. Examples of debris include non-operational satellites, rocket bodies, and fragments generated from explosions, collisions, or faulty payload assembly.

Loading next visibility...
Identifier
44692, 2018-079BE
Orbit
HEO
Country
Flag of USUS
Related business
Flag of USUnited Launch Alliance/Lockheed Martin (US)
Manufacturer
ULA Decatur
Mission
Spacecraft
Bus & Motor
Unknown
Mass
Unknown
Launch date (UTC)
2018-10-17 (7 years ago)
Launch vehicle
Unknown
Launch site
Air Force Eastern Test Range (AFETR)
Object type
Payload
Rocket body
Debris
Shape & HBR
Unknown shape, 1.1 m
Radar Cross Section
RCS unknown

Expand to show TLE details & history
Last TLE update: 1 month ago

TLE from 1 month ago
0 ATLAS 5 CENTAUR DEB
1 44692U 18079BE  25260.41199243 -.00000088  00000-0  00000-0 0  9995
2 44692  11.9937  95.9237 4642562 202.5658 127.7785  1.71601976 38689
Epoch: 2025-09-17T09:53Z
TLE epoch observation values (Epoch: 2025-09-17T09:53:16.145Z)
Latitude
Longitude
-48.90268°
Altitude
34,071.67 km
Speed
2.487 km/s
True Right ascension
06h 24m 00s
True Declination
0° 00' 00"
Sunlit
Object was in daylight at epoch
Visualization orbit readout
Latitude
Unknown
Longitude
Unknown
Altitude
Unknown
Speed
Unknown
Apparent Right ascension
Unknown
Apparent Declination
Unknown
Sunlit
N/A
Visualization observer readout
Local Sidereal Time
14:55:04
Azimuth
Unknown
Elevation
Unknown
Doppler factor
Unknown
Orbital elements
Apogee altitude
36,777.146 km
Perigee altitude
9,411.569 km
Semi-major axis
29,472.494 km
Eccentricity
0.46426
Inclination
11.9937°
RAAN
95.9237°
Arg. of periapsis
202.5658°
True anomaly
157.48696°
Mean anomaly
127.7785°
Eccentric anomaly
143.57335°
Mean motion
0.42896 °/min
Orbital period
839.24 mins
BSTAR
0
Loading maneuver chart data...
Computing Atmospheric mass density...

Documentation

Showing up to 5 results
|